Torna al catalogo

METEOR 2-8 DEB

AttivoPO
NORAD 36338·DEBRIS·🇷🇺 Russia

Lanciato Mar 25, 1982 da Plesetsk Cosmodrome

Loading…

Prossimi Passaggi (prossime 24 ore)

TLE

In scadenzaSource: Space-Track

Epoca: Sep 9, 2026, 07:20 UTC

1 36338U 82025Y   26252.30566612  .00002809  00000-0  10602-2 0  9996
2 36338  82.5185 101.4887 0014612 152.0200 208.1775 14.31032227117786

Traccia METEOR 2-8 DEB in tempo reale con AllMySat

Download on the App Store